Location: R�serve Fauniques des Laurentides
(47.3100°N, 71.1900°W)
Time: 15:16:34
(UTC-04:00)

Cosmos 1674 - Visible Passes

Search period start: 23 July 2016 00:00
Search period end: 02 August 2016 00:00
Orbit: 501 x 525 km, 82.5° (Epoch: 22 July)

Date Brightness Start Highest point End Pass type
(mag) Time Alt. Az. Time Alt. Az. Time Alt. Az.
23 Jul 5.3 04:09:06 10° NNE 04:12:11 23° ENE 04:15:14 10° SE visible
24 Jul 5.6 03:53:29 10° NNE 03:56:17 19° ENE 03:59:02 10° ESE visible
25 Jul 5.7 03:37:56 10° NNE 03:40:21 16° ENE 03:42:45 10° ESE visible
26 Jul 5.8 03:22:29 10° NE 03:24:25 13° ENE 03:26:18 10° E visible
27 Jul 5.9 03:07:19 10° NE 03:08:27 11° ENE 03:09:35 10° E visible
27 Jul 2.6 04:40:50 10° NNW 04:44:36 66° W 04:48:19 10° S visible
28 Jul 2.6 04:24:58 10° N 04:28:46 83° W 04:32:30 10° S visible
29 Jul 2.8 04:09:06 10° N 04:12:54 79° E 04:16:39 10° SSE visible
30 Jul 3.1 03:53:16 10° N 03:57:02 63° E 04:00:45 10° SSE visible
31 Jul 3.5 03:37:27 10° N 03:41:09 50° ENE 03:44:49 10° SSE visible
01 Aug 3.9 03:21:40 10° N 03:25:16 40° ENE 03:28:49 10° SSE visible
